When you browse on this site, cookies collect data to enhance your experience and personalize the content and advertising you see.
Visit our Privacy Policy to learn more. By continuing to use the site, you agree to this use of cookies and data.
EN

Hourly Weather Alibaevskoe

Today, 15 August, Saturday

Time Temperature Precipitation Wind Pressure Humidity
00:00 +15°C° 0 mm 1 mps 719 mmHg 81%
01:00 +15°C° 0 mm 1 mps 720 mmHg 80%
02:00 +14°C° 0 mm 0 mps 720 mmHg 79%
03:00 +14°C° 0 mm 0 mps 720 mmHg 79%
04:00 +14°C° 0 mm 0 mps 720 mmHg 78%
05:00 +15°C° 0 mm 0 mps 720 mmHg 76%
06:00 +15°C° 0 mm 0 mps 720 mmHg 74%
07:00 +16°C° 0 mm 0 mps 720 mmHg 72%
08:00 +19°C° 0.1 mm 1 mps 720 mmHg 69%
09:00 +19°C° 0.1 mm 2 mps 720 mmHg 65%
10:00 +20°C° 0.1 mm 2 mps 720 mmHg 61%
11:00 +20°C° 0 mm 2 mps 720 mmHg 59%
12:00 +20°C° 0 mm 2 mps 720 mmHg 56%
13:00 +21°C° 0 mm 3 mps 720 mmHg 53%
14:00 +21°C° 0 mm 3 mps 720 mmHg 52%
15:00 +21°C° 0 mm 3 mps 720 mmHg 51%
16:00 +21°C° 0 mm 3 mps 720 mmHg 50%
17:00 +19°C° 0.1 mm 3 mps 719 mmHg 57%
18:00 +18°C° 0.1 mm 2 mps 719 mmHg 65%
19:00 +17°C° 0.1 mm 2 mps 719 mmHg 72%
20:00 +16°C° 0.2 mm 1 mps 719 mmHg 74%
21:00 +15°C° 0.2 mm 1 mps 719 mmHg 76%
22:00 +13°C° 0.2 mm 0 mps 718 mmHg 79%
23:00 +13°C° 0 mm 0 mps 718 mmHg 79%

Tomorrow, 16 August, Sunday

Time Temperature Precipitation Wind Pressure Humidity
00:00 +13°C° 0 mm 0 mps 718 mmHg 80%
01:00 +12°C° 0 mm 0 mps 718 mmHg 80%
02:00 +12°C° 0 mm 0 mps 718 mmHg 81%
03:00 +12°C° 0 mm 0 mps 718 mmHg 82%
04:00 +12°C° 0 mm 0 mps 718 mmHg 82%
05:00 +12°C° 0 mm 0 mps 717 mmHg 81%
06:00 +14°C° 0 mm 1 mps 717 mmHg 79%
07:00 +14°C° 0 mm 1 mps 717 mmHg 77%
08:00 +16°C° 0.1 mm 1 mps 717 mmHg 72%
09:00 +18°C° 0.1 mm 1 mps 718 mmHg 66%
10:00 +18°C° 0.1 mm 2 mps 718 mmHg 60%
11:00 +19°C° 0.3 mm 2 mps 718 mmHg 58%
12:00 +19°C° 0.3 mm 3 mps 718 mmHg 55%
13:00 +20°C° 0.3 mm 3 mps 717 mmHg 53%
14:00 +20°C° 0.4 mm 4 mps 718 mmHg 54%
15:00 +20°C° 0.4 mm 4 mps 718 mmHg 56%
16:00 +19°C° 0.4 mm 5 mps 718 mmHg 58%
17:00 +17°C° 0.6 mm 5 mps 717 mmHg 66%
18:00 +16°C° 0.6 mm 5 mps 717 mmHg 73%
19:00 +14°C° 0.6 mm 5 mps 717 mmHg 81%
20:00 +14°C° 0 mm 5 mps 717 mmHg 84%
21:00 +13°C° 0 mm 4 mps 717 mmHg 87%
22:00 +12°C° 0 mm 4 mps 717 mmHg 90%
23:00 +12°C° 0 mm 4 mps 717 mmHg 90%

Day after tomorrow, 17 August, Monday

Time Temperature Precipitation Wind Pressure Humidity
00:00 +12°C° 0 mm 4 mps 717 mmHg 90%
01:00 +11°C° 0 mm 4 mps 717 mmHg 91%
02:00 +11°C° 0 mm 4 mps 717 mmHg 92%
03:00 +11°C° 0 mm 4 mps 717 mmHg 93%
04:00 +11°C° 0 mm 3 mps 717 mmHg 94%
05:00 +11°C° 0 mm 4 mps 717 mmHg 93%
06:00 +11°C° 0 mm 4 mps 717 mmHg 92%
07:00 +12°C° 0 mm 5 mps 717 mmHg 91%
08:00 +13°C° 0 mm 5 mps 717 mmHg 85%
09:00 +14°C° 0 mm 5 mps 717 mmHg 79%
10:00 +15°C° 0 mm 5 mps 717 mmHg 73%
11:00 +15°C° 0 mm 5 mps 717 mmHg 70%
12:00 +16°C° 0 mm 6 mps 717 mmHg 66%
13:00 +17°C° 0 mm 6 mps 717 mmHg 62%
14:00 +17°C° 0.1 mm 6 mps 717 mmHg 61%
15:00 +17°C° 0.1 mm 6 mps 717 mmHg 60%
16:00 +19°C° 0.1 mm 6 mps 717 mmHg 59%
17:00 +16°C° 0.1 mm 6 mps 717 mmHg 64%
18:00 +15°C° 0.1 mm 5 mps 717 mmHg 69%
19:00 +14°C° 0.1 mm 4 mps 717 mmHg 75%
20:00 +13°C° 0 mm 4 mps 717 mmHg 77%
21:00 +13°C° 0 mm 4 mps 717 mmHg 80%
22:00 +12°C° 0 mm 4 mps 718 mmHg 83%
23:00 +12°C° 0 mm 4 mps 717 mmHg 83%

18 August, Tuesday

Time Temperature Precipitation Wind Pressure Humidity
00:00 +12°C° 0 mm 4 mps 717 mmHg 82%
01:00 +11°C° 0 mm 4 mps 717 mmHg 82%
02:00 +11°C° 0.1 mm 4 mps 717 mmHg 83%
03:00 +12°C° 0.1 mm 4 mps 717 mmHg 84%
04:00 +12°C° 0.1 mm 4 mps 717 mmHg 85%
05:00 +12°C° 0 mm 4 mps 717 mmHg 85%
06:00 +12°C° 0 mm 5 mps 716 mmHg 85%
07:00 +11°C° 0 mm 6 mps 716 mmHg 86%
08:00 +13°C° 0 mm 6 mps 716 mmHg 80%
09:00 +14°C° 0 mm 6 mps 717 mmHg 75%
10:00 +15°C° 0 mm 6 mps 717 mmHg 69%
11:00 +16°C° 0.1 mm 6 mps 717 mmHg 65%
12:00 +17°C° 0.1 mm 7 mps 717 mmHg 61%
13:00 +18°C° 0.1 mm 7 mps 717 mmHg 58%
14:00 +18°C° 0.1 mm 7 mps 717 mmHg 57%
15:00 +18°C° 0.1 mm 7 mps 717 mmHg 56%
16:00 +18°C° 0.1 mm 7 mps 718 mmHg 55%
17:00 +17°C° 0 mm 6 mps 718 mmHg 61%
18:00 +15°C° 0 mm 5 mps 718 mmHg 67%
19:00 +14°C° 0 mm 5 mps 718 mmHg 73%
20:00 +13°C° 0 mm 5 mps 719 mmHg 77%
21:00 +12°C° 0 mm 5 mps 719 mmHg 80%
22:00 +10°C° 0 mm 5 mps 719 mmHg 84%
23:00 +9°C° 0 mm 5 mps 720 mmHg 85%

19 August, Wednesday

Time Temperature Precipitation Wind Pressure Humidity
00:00 +9°C° 0 mm 5 mps 720 mmHg 86%
01:00 +8°C° 0 mm 4 mps 720 mmHg 87%
02:00 +8°C° 0 mm 4 mps 720 mmHg 86%
03:00 +7°C° 0 mm 4 mps 720 mmHg 86%
04:00 +7°C° 0 mm 4 mps 721 mmHg 85%
05:00 +8°C° 0 mm 5 mps 721 mmHg 81%
06:00 +9°C° 0 mm 5 mps 721 mmHg 76%
07:00 +9°C° 0 mm 6 mps 721 mmHg 72%
08:00 +11°C° 0 mm 6 mps 721 mmHg 66%
09:00 +13°C° 0 mm 6 mps 721 mmHg 60%
10:00 +15°C° 0 mm 7 mps 722 mmHg 54%
11:00 +15°C° 0 mm 7 mps 722 mmHg 53%
12:00 +16°C° 0 mm 7 mps 722 mmHg 51%
13:00 +16°C° 0 mm 7 mps 722 mmHg 50%
14:00 +16°C° 0 mm 7 mps 722 mmHg 50%
15:00 +16°C° 0 mm 6 mps 722 mmHg 51%
16:00 +16°C° 0 mm 6 mps 722 mmHg 51%
17:00 +15°C° 0 mm 5 mps 722 mmHg 56%
18:00 +14°C° 0 mm 4 mps 722 mmHg 61%
19:00 +13°C° 0 mm 4 mps 723 mmHg 67%
20:00 +12°C° 0 mm 4 mps 723 mmHg 71%
21:00 +11°C° 0 mm 4 mps 723 mmHg 74%
22:00 +10°C° 0 mm 4 mps 723 mmHg 78%
23:00 +10°C° 0 mm 4 mps 723 mmHg 80%

20 August, Thursday

Time Temperature Precipitation Wind Pressure Humidity
00:00 +9°C° 0 mm 3 mps 723 mmHg 82%
01:00 +9°C° 0 mm 3 mps 723 mmHg 84%
02:00 +9°C° 0 mm 3 mps 723 mmHg 85%
03:00 +8°C° 0 mm 3 mps 723 mmHg 85%
04:00 +8°C° 0 mm 3 mps 724 mmHg 86%
05:00 +8°C° 0 mm 4 mps 724 mmHg 83%
06:00 +10°C° 0 mm 4 mps 724 mmHg 80%
07:00 +11°C° 0 mm 4 mps 724 mmHg 77%
08:00 +13°C° 0 mm 5 mps 724 mmHg 70%
09:00 +14°C° 0 mm 5 mps 724 mmHg 63%
10:00 +16°C° 0 mm 5 mps 725 mmHg 56%
11:00 +17°C° 0 mm 5 mps 725 mmHg 56%
12:00 +17°C° 0 mm 5 mps 725 mmHg 55%
13:00 +19°C° 0 mm 5 mps 725 mmHg 54%
14:00 +19°C° 0 mm 6 mps 725 mmHg 55%
15:00 +19°C° 0 mm 6 mps 725 mmHg 56%
16:00 +19°C° 0 mm 6 mps 725 mmHg 57%
17:00 +17°C° 0 mm 5 mps 725 mmHg 63%
18:00 +17°C° 0 mm 4 mps 725 mmHg 69%
19:00 +16°C° 0 mm 3 mps 725 mmHg 75%
20:00 +14°C° 0 mm 3 mps 725 mmHg 78%
21:00 +13°C° 0 mm 3 mps 725 mmHg 82%
22:00 +12°C° 0 mm 3 mps 725 mmHg 85%
23:00 +12°C° 0 mm 3 mps 725 mmHg 85%
Show more